Weather Roundup
Issued by NWS

Home | Current Version | Previous Version | Text Only | Print | Product List | Glossary On
Versions: 1 2 3 4 5 6 7 8 9 10 11 12 13 14 15 16 17 18 19 20 21 22 23 24 25 26 27 28 29 30 31 32 33 34 35 36 37 38 39 40 41 42 43 44 45 46 47 48 49 50
000
NZUS93 KARX 300859
HRRWXR

CURRENT HOURLY OBSERVATIONS ACROSS
MUCH OF THE UPPER MISSISSIPPI VALLEY
NATIONAL WEATHER SERVICE LA CROSSE WI
400 AM CDT SAT AUG 30 2014


...SOUTHEAST MINNESOTA...


CITY           SKY/WX    TMP DP  RH WIND       PRES   REMARKS
ROCHESTER      LGT RAIN  66  64  93 SW7       29.77S
ROCHESTER/MAYO CLOUDY    65  64  97 CALM      29.75S
WINONA         CLOUDY    70  68  94 CALM      29.74S
AUSTIN         RAIN      66  64  94 W6        29.77S
ALBERT LEA     CLOUDY    66  66 100 W6        29.77F FOG
DODGE CENTER   LGT RAIN  66  66 100 W6        29.77R
PRESTON        CLOUDY    65  65 100 CALM      29.77R FOG
OWATONNA       DRIZZLE   66  64  94 W3        29.77S
FARIBAULT      CLOUDY    70  63  78 CALM      29.77R
$$

...ELSEWHERE IN MINNESOTA...


CITY           SKY/WX    TMP DP  RH WIND       PRES   REMARKS
MINNEAPOLIS    CLOUDY    68  68 100 N8        29.76R
INTNL FALLS    PTCLDY    57  54  89 N9        29.87R
DULUTH         CLOUDY    62  59  90 N6        29.81R
RED WING       CLOUDY    66  66 100 CALM      29.74S
REDWOOD FALLS  CLOUDY    66  65  96 NW9       29.81S
MANKATO        CLOUDY    66  63  88 W8        29.78S
WORTHINGTON    PTCLDY    64  64 100 NW5       29.86R
FAIRMONT       CLOUDY    64  55  72 NW8       29.81R
$$

...SOUTHWEST WISCONSIN...


CITY           SKY/WX    TMP DP  RH WIND       PRES   REMARKS
LA CROSSE      LGT RAIN  68  66  93 CALM      29.73S FOG
PRAIRIE DU CHI CLOUDY    69  66  90 CALM      29.76S
BOSCOBEL       CLOUDY    70  67  90 S3        29.76F
LONE ROCK      CLOUDY    73  68  83 SW5       29.77S
PLATTEVILLE    CLOUDY    70  69  96 SW8       29.80S
FORT MC COY    DRIZZLE   67  66  97 CALM      29.75S
CAMP DOUGLAS   MOCLDY    68  68 100 S9        29.73F
VIROQUA        CLOUDY    66  66 100 SW8       29.77R
WIS DELLS      CLOUDY    70  66  88 SW9       29.76S
$$

...ELSEWHERE IN WISCONSIN...


CITY           SKY/WX    TMP DP  RH WIND       PRES   REMARKS
MILWAUKEE      LGT RAIN  74  68  81 S9        29.80F
MADISON        CLOUDY    72  68  87 S8        29.78S
GREEN BAY      HVY RAIN  68  67  96 E5        29.77S
EAU CLAIRE     NOT AVBL
BLACK RVR FLS  LGT RAIN  67  67 100 CALM      29.73F
MEDFORD        LGT RAIN  63  63  99 CALM      29.76F
WAUSAU         RAIN      65  64  97 SE6       29.74F FOG
WIS RAPIDS     CLOUDY    67  66  97 E7        29.75F
MARSHFIELD     LGT RAIN  67  65  93 NE3       29.75S FOG
RICE LAKE      RAIN      65  63  95 CALM      29.78R
$$

...NORTHEAST IOWA...


CITY           SKY/WX    TMP DP  RH WIND       PRES   REMARKS
WATERLOO       CLOUDY    67  65  93 SW9       29.76R
DUBUQUE        CLOUDY    70  69  97 S10       29.79S
DECORAH        CLOUDY    66  66 100 S5        29.76S FOG
MASON CITY     CLOUDY    65  64  97 W7        29.80S
CHARLES CITY   CLOUDY    68  66  94 S3        29.77S FOG
OELWEIN        CLOUDY    68  66  94 SW8       29.78S
$$

...ELSEWHERE IN IOWA...


CITY           SKY/WX    TMP DP  RH WIND       PRES   REMARKS
DES MOINES     CLOUDY    67  65  93 SW3       29.82R
IOWA CITY      MOCLDY    67  67 100 S8        29.82R
FORT DODGE     CLOUDY    66  64  94 W6        29.83R
MARSHALLTOWN   CLOUDY    67  66  97 SW8       29.78R
CEDAR RAPIDS   MOCLDY    67  66  97 SW8       29.79S
$$

...NORTHERN ILLINOIS...


CITY           SKY/WX    TMP DP  RH WIND       PRES   REMARKS
CHICAGO-OHARE  CLOUDY    75  66  73 SW13      29.84R
DUPAGE         CLOUDY    74  69  85 SW13      29.84R
CHICAGO-MIDWAY CLOUDY    76  70  82 S14       29.84S
MOLINE         RAIN      70  68  93 S8        29.83R FOG
ROCKFORD       MOCLDY    70  67  90 SW9       29.83S
STERLING       PTCLDY    70  66  88 W6        29.83S
PEORIA         PTCLDY    73  69  87 S9        29.86S
$$

NOTE: "FAIR" INDICATES FEW OR NO CLOUDS BELOW 12,000 FEET WITH NO
SIGNIFICANT WEATHER AND/OR OBSTRUCTIONS TO VISIBILITY. WIND
SPEEDS ARE IN MILES-PER-HOUR.



USA.gov is the U.S. government's official web portal to all federal, state and local government web resources and services.